Location: Campolattaro
(41.2833°N, 14.7333°E)
Time: 23:09:38
(UTC+00:00)

NOSS 3-1 (A) - Pass Details

Date: 19 May 2025
Orbit: 639 x 1568 km, 63.4° (Epoch: 20 June)

Event Time Altitude Azimuth Distance (km) Brightness Sun altitude
Exits shadow 20:50:24 44° 198° (SSW) 959 3.2 -22.0°
Maximum altitude 20:51:53 77° 122° (ESE) 744 2.7 -22.2°
Drops below altitude 10° 20:57:21 10° 37° (NE) 2,441 5.8 -22.7°
Sets 21:00:04 0° 37° (NE) 3,515 6.7 -23.0°
